TimePST,TemperatureF,Dew PointF,Humidity,Sea Level PressureIn,VisibilityMPH,Wind Direction,Wind SpeedMPH,Gust SpeedMPH,PrecipitationIn,Events,Conditions,WindDirDegrees,DateUTC
12:52 AM,55.0,16.0,22,30.27,10.0,North,10.4,-,N/A,,Clear,350,2014-01-15 08:52:00
1:52 AM,55.9,17.1,22,30.29,10.0,Variable,3.5,-,N/A,,Clear,0,2014-01-15 09:52:00
2:52 AM,54.0,17.1,23,30.29,10.0,Calm,Calm,-,N/A,,Clear,0,2014-01-15 10:52:00
3:52 AM,55.0,17.1,23,30.29,10.0,North,8.1,-,N/A,,Clear,10,2014-01-15 11:52:00
4:52 AM,51.1,19.0,28,30.30,10.0,ENE,8.1,-,N/A,,Clear,70,2014-01-15 12:52:00
5:52 AM,53.1,19.0,26,30.31,10.0,Calm,Calm,-,N/A,,Clear,0,2014-01-15 13:52:00
6:52 AM,48.0,19.9,33,30.31,10.0,Calm,Calm,-,N/A,,Clear,0,2014-01-15 14:52:00
7:52 AM,54.0,19.9,26,30.32,10.0,Calm,Calm,-,N/A,,Clear,0,2014-01-15 15:52:00
8:52 AM,59.0,19.0,21,30.34,10.0,Calm,Calm,-,N/A,,Clear,0,2014-01-15 16:52:00
9:52 AM,63.0,19.0,18,30.33,10.0,Calm,Calm,-,N/A,,Clear,0,2014-01-15 17:52:00
10:52 AM,72.0,18.0,13,30.30,10.0,North,16.1,-,N/A,,Clear,350,2014-01-15 18:52:00
11:52 AM,71.1,24.1,17,30.27,10.0,ENE,11.5,-,N/A,,Clear,70,2014-01-15 19:52:00
12:52 PM,75.9,19.0,12,30.22,10.0,North,12.7,-,N/A,,Clear,350,2014-01-15 20:52:00
1:52 PM,77.0,19.0,11,30.19,10.0,North,8.1,-,N/A,,Clear,360,2014-01-15 21:52:00
2:52 PM,78.1,19.0,11,30.18,10.0,North,12.7,-,N/A,,Clear,350,2014-01-15 22:52:00
3:52 PM,77.0,19.0,11,30.17,10.0,NNW,10.4,-,N/A,,Clear,340,2014-01-15 23:52:00
4:52 PM,72.0,23.0,16,30.17,10.0,NE,4.6,-,N/A,,Clear,40,2014-01-16 00:52:00
5:52 PM,64.9,25.0,22,30.16,10.0,South,3.5,-,N/A,,Clear,190,2014-01-16 01:52:00
6:52 PM,62.1,23.0,22,30.17,10.0,North,4.6,-,N/A,,Clear,350,2014-01-16 02:52:00
7:52 PM,60.1,19.9,21,30.17,10.0,NNW,4.6,-,N/A,,Clear,330,2014-01-16 03:52:00
8:52 PM,62.1,19.0,19,30.17,10.0,North,11.5,-,N/A,,Clear,350,2014-01-16 04:52:00
9:52 PM,60.1,18.0,20,30.17,10.0,NNW,11.5,-,N/A,,Clear,340,2014-01-16 05:52:00
10:52 PM,53.1,19.0,26,30.15,10.0,NW,8.1,-,N/A,,Clear,310,2014-01-16 06:52:00
11:52 PM,52.0,19.9,28,30.15,10.0,Calm,Calm,-,N/A,,Clear,0,2014-01-16 07:52:00